TimeICT,TemperatureF,Dew PointF,Humidity,Sea Level PressureIn,VisibilityMPH,Wind Direction,Wind SpeedMPH,Gust SpeedMPH,PrecipitationIn,Events,Conditions,WindDirDegrees,DateUTC
12:00 AM,77.0,73.4,89,29.83,5.6,Calm,Calm,-,N/A,,Mostly Cloudy,0,2013-08-26 17:00:00
12:30 AM,77.0,73.4,89,29.83,5.6,Calm,Calm,-,N/A,,Mostly Cloudy,0,2013-08-26 17:30:00
1:00 AM,76,73,87,29.83,6,Calm,Calm,,,,Mist,,2013-08-26 18:00:00
1:00 AM,77.0,73.4,89,29.83,5.6,Calm,Calm,-,N/A,,Mostly Cloudy,0,2013-08-26 18:00:00
1:30 AM,75.2,73.4,94,29.80,5.6,Calm,Calm,-,N/A,,Mostly Cloudy,0,2013-08-26 18:30:00
2:00 AM,75.2,73.4,94,29.80,5.6,Calm,Calm,-,N/A,,Mostly Cloudy,0,2013-08-26 19:00:00
2:30 AM,75.2,71.6,89,29.80,5.6,Calm,Calm,-,N/A,,Mostly Cloudy,0,2013-08-26 19:30:00
3:00 AM,75.2,73.4,94,29.80,5.6,Calm,Calm,-,N/A,,Mostly Cloudy,0,2013-08-26 20:00:00
3:30 AM,75.2,73.4,94,29.77,5.6,Calm,Calm,-,N/A,,Mostly Cloudy,0,2013-08-26 20:30:00
4:00 AM,75.2,73.4,94,29.77,5.6,Calm,Calm,-,N/A,,Mostly Cloudy,0,2013-08-26 21:00:00
4:30 AM,75.2,73.4,94,29.80,5.0,Calm,Calm,-,N/A,,Mostly Cloudy,0,2013-08-26 21:30:00
5:00 AM,75.2,73.4,94,29.80,5.0,Calm,Calm,-,N/A,,Mostly Cloudy,0,2013-08-26 22:00:00
5:30 AM,73.4,71.6,94,29.80,5.0,Calm,Calm,-,N/A,,Mostly Cloudy,0,2013-08-26 22:30:00
6:00 AM,73.4,71.6,94,29.80,5.0,Calm,Calm,-,N/A,,Mostly Cloudy,0,2013-08-26 23:00:00
6:30 AM,73.4,71.6,94,29.80,5.0,Calm,Calm,-,N/A,,Mostly Cloudy,0,2013-08-26 23:30:00
7:00 AM,75,73,92,29.83,5,Calm,Calm,,,,Mist,,2013-08-27 00:00:00
7:00 AM,75.2,73.4,94,29.80,5.0,Calm,Calm,-,N/A,,Mostly Cloudy,0,2013-08-27 00:00:00
7:30 AM,77.0,75.2,94,29.83,5.0,Calm,Calm,-,N/A,,Mostly Cloudy,0,2013-08-27 00:30:00
8:00 AM,78.8,75.2,89,29.83,5.0,Calm,Calm,-,N/A,,Mostly Cloudy,0,2013-08-27 01:00:00
8:30 AM,82.4,75.2,79,29.83,5.0,Calm,Calm,-,N/A,,Mostly Cloudy,0,2013-08-27 01:30:00
9:00 AM,84.2,75.2,74,29.83,5.6,SSW,4.6,-,N/A,,Mostly Cloudy,210,2013-08-27 02:00:00
9:30 AM,86.0,75.2,70,29.86,5.6,SSW,4.6,-,N/A,,Mostly Cloudy,210,2013-08-27 02:30:00
10:00 AM,87.8,73.4,62,29.86,5.6,SSW,4.6,-,N/A,,Mostly Cloudy,210,2013-08-27 03:00:00
10:30 AM,89.6,73.4,59,29.83,5.6,SW,6.9,-,N/A,,Mostly Cloudy,230,2013-08-27 03:30:00
11:00 AM,89.6,73.4,59,29.83,5.6,South,8.1,-,N/A,,Mostly Cloudy,170,2013-08-27 04:00:00
11:30 AM,91.4,71.6,52,29.83,5.6,SW,8.1,-,N/A,,Mostly Cloudy,230,2013-08-27 04:30:00
12:00 PM,89.6,71.6,55,29.83,5.6,SSW,9.2,-,N/A,,Mostly Cloudy,210,2013-08-27 05:00:00
12:30 PM,89.6,75.2,62,29.80,5.6,South,9.2,-,N/A,,Mostly Cloudy,180,2013-08-27 05:30:00
1:00 PM,90,72,46,29.80,6,South,9.2,,,,Haze,190,2013-08-27 06:00:00
1:00 PM,89.6,71.6,55,29.80,5.6,South,9.2,-,N/A,,Mostly Cloudy,190,2013-08-27 06:00:00
1:30 PM,89.6,71.6,55,29.77,5.6,SSW,9.2,-,N/A,,Mostly Cloudy,200,2013-08-27 06:30:00
2:00 PM,89.6,71.6,55,29.77,5.6,SW,9.2,-,N/A,,Mostly Cloudy,220,2013-08-27 07:00:00
2:30 PM,91.4,73.4,55,29.74,5.0,SSW,8.1,-,N/A,,Mostly Cloudy,200,2013-08-27 07:30:00
3:00 PM,89.6,73.4,59,29.74,5.0,SSW,9.2,-,N/A,,Mostly Cloudy,200,2013-08-27 08:00:00
3:30 PM,89.6,73.4,59,29.74,5.0,South,6.9,-,N/A,,Mostly Cloudy,170,2013-08-27 08:30:00
4:00 PM,87.8,73.4,62,29.74,5.0,South,10.4,-,N/A,,Overcast,190,2013-08-27 09:00:00
4:30 PM,84.2,73.4,70,29.74,5.0,South,6.9,-,N/A,,Overcast,170,2013-08-27 09:30:00
5:00 PM,86.0,73.4,66,29.74,5.0,WSW,8.1,-,N/A,,Overcast,250,2013-08-27 10:00:00
5:30 PM,82.4,73.4,74,29.77,5.0,North,11.5,-,N/A,Rain,Rain,360,2013-08-27 10:30:00
6:00 PM,80.6,69.8,70,29.77,5.0,East,4.6,-,N/A,Thunderstorm,Thunderstorm,80,2013-08-27 11:00:00
6:30 PM,80.6,71.6,74,29.77,5.0,SSE,2.3,-,N/A,,Overcast,150,2013-08-27 11:30:00
7:00 PM,80,74,77,29.78,5,Calm,Calm,,,Rain,Light Rain,,2013-08-27 12:00:00
7:00 PM,80.6,73.4,79,29.77,5.0,Calm,Calm,-,N/A,Rain,Light Rain,0,2013-08-27 12:00:00
7:30 PM,80.6,73.4,79,29.77,5.0,NNW,2.3,-,N/A,Rain,Light Rain,330,2013-08-27 12:30:00
8:00 PM,80.6,73.4,79,29.80,5.0,NW,5.8,-,N/A,,Mostly Cloudy,310,2013-08-27 13:00:00
8:30 PM,78.8,73.4,83,29.83,5.0,Calm,Calm,-,N/A,,Mostly Cloudy,0,2013-08-27 13:30:00
9:00 PM,78.8,73.4,83,29.83,5.0,Calm,Calm,-,N/A,,Mostly Cloudy,0,2013-08-27 14:00:00
9:30 PM,78.8,73.4,83,29.83,5.0,Calm,Calm,-,N/A,,Mostly Cloudy,0,2013-08-27 14:30:00
10:00 PM,79,73,78,29.86,5,Calm,Calm,,,,Partly Cloudy,,2013-08-27 15:00:00
10:00 PM,78.8,73.4,83,29.86,5.0,Calm,Calm,-,N/A,,Mostly Cloudy,0,2013-08-27 15:00:00
10:30 PM,78.8,75.2,89,29.86,5.0,Calm,Calm,-,N/A,,Mostly Cloudy,0,2013-08-27 15:30:00
11:00 PM,78.8,75.2,89,29.83,5.0,Calm,Calm,-,N/A,,Mostly Cloudy,0,2013-08-27 16:00:00
11:30 PM,78.8,75.2,89,29.83,5.0,Calm,Calm,-,N/A,,Mostly Cloudy,0,2013-08-27 16:30:00